TimePST,TemperatureF,Dew PointF,Humidity,Sea Level PressureIn,VisibilityMPH,Wind Direction,Wind SpeedMPH,Gust SpeedMPH,PrecipitationIn,Events,Conditions,WindDirDegrees,DateUTC
12:56 AM,48.9,42.1,77,30.03,10.0,West,23.0,29.9,N/A,,Mostly Cloudy,270,2012-11-07 08:56:00
1:56 AM,48.9,42.1,77,30.05,10.0,WNW,19.6,-,N/A,,Scattered Clouds,290,2012-11-07 09:56:00
2:56 AM,48.9,42.1,77,30.08,10.0,West,17.3,-,N/A,,Scattered Clouds,280,2012-11-07 10:56:00
3:56 AM,48.9,42.1,77,30.08,10.0,West,18.4,-,N/A,,Scattered Clouds,270,2012-11-07 11:56:00
4:56 AM,48.0,41.0,77,30.09,10.0,West,16.1,-,N/A,,Scattered Clouds,260,2012-11-07 12:56:00
5:56 AM,46.9,41.0,80,30.11,10.0,WNW,11.5,-,N/A,,Scattered Clouds,290,2012-11-07 13:56:00
6:28 AM,46.4,41.0,81,30.11,10.0,WNW,13.8,-,0.00,Rain,Light Rain,290,2012-11-07 14:28:00
6:44 AM,46.4,41.0,81,30.10,10.0,West,13.8,-,0.00,,Overcast,280,2012-11-07 14:44:00
6:56 AM,46.9,39.9,77,30.12,10.0,West,16.1,-,0.00,,Overcast,280,2012-11-07 14:56:00
7:56 AM,46.9,39.9,77,30.13,10.0,West,12.7,-,N/A,,Mostly Cloudy,260,2012-11-07 15:56:00
8:56 AM,48.9,41.0,74,30.14,10.0,WSW,9.2,-,N/A,,Mostly Cloudy,250,2012-11-07 16:56:00
9:56 AM,50.0,39.9,68,30.14,10.0,South,3.5,-,N/A,,Mostly Cloudy,180,2012-11-07 17:56:00
10:56 AM,50.0,41.0,71,30.15,10.0,WSW,6.9,-,N/A,,Mostly Cloudy,250,2012-11-07 18:56:00
11:56 AM,50.0,41.0,71,30.14,10.0,SSE,5.8,-,N/A,,Mostly Cloudy,160,2012-11-07 19:56:00
12:56 PM,52.0,39.9,63,30.13,10.0,SSE,5.8,-,N/A,,Scattered Clouds,160,2012-11-07 20:56:00
1:56 PM,50.0,39.9,68,30.12,10.0,SSE,8.1,-,N/A,,Overcast,150,2012-11-07 21:56:00
2:56 PM,50.0,39.9,68,30.10,10.0,SSE,8.1,-,N/A,,Mostly Cloudy,150,2012-11-07 22:56:00
3:56 PM,48.0,39.0,71,30.09,10.0,ENE,3.5,-,N/A,,Mostly Cloudy,60,2012-11-07 23:56:00
4:56 PM,48.0,39.0,71,30.08,10.0,East,6.9,-,N/A,,Overcast,80,2012-11-08 00:56:00
5:56 PM,46.0,37.9,73,30.06,10.0,East,10.4,-,N/A,,Overcast,80,2012-11-08 01:56:00
6:56 PM,44.1,36.0,73,30.06,10.0,ESE,8.1,-,N/A,,Mostly Cloudy,120,2012-11-08 02:56:00
7:56 PM,45.0,37.0,74,30.04,10.0,ENE,10.4,-,N/A,,Scattered Clouds,70,2012-11-08 03:56:00
8:56 PM,44.1,37.0,76,30.02,10.0,East,9.2,-,N/A,,Scattered Clouds,90,2012-11-08 04:56:00
9:56 PM,43.0,36.0,76,30.01,10.0,East,10.4,-,N/A,,Partly Cloudy,100,2012-11-08 05:56:00
10:56 PM,43.0,36.0,76,29.99,10.0,East,8.1,-,N/A,,Scattered Clouds,80,2012-11-08 06:56:00
11:56 PM,42.1,36.0,79,29.97,10.0,East,6.9,-,N/A,,Partly Cloudy,90,2012-11-08 07:56:00